Year,Month,Day,Hour,Minute,Value (Times are PST for temperature in C)
2017,07,09,00,00,19.80
2017,07,09,00,01,19.80
2017,07,09,00,02,19.80
2017,07,09,00,03,19.80
2017,07,09,00,04,19.80
2017,07,09,00,05,19.80
2017,07,09,00,06,19.80
2017,07,09,00,07,19.80
2017,07,09,00,08,19.70
2017,07,09,00,09,19.70
2017,07,09,00,10,19.70
2017,07,09,00,11,19.70
2017,07,09,00,12,19.70
2017,07,09,00,13,19.70
2017,07,09,00,14,19.70
2017,07,09,00,15,19.70
2017,07,09,00,16,19.70
2017,07,09,00,17,19.60
2017,07,09,00,18,19.60
2017,07,09,00,19,19.60
2017,07,09,00,20,19.60
2017,07,09,00,21,19.60
2017,07,09,00,22,19.60
2017,07,09,00,23,19.60
2017,07,09,00,24,19.50
2017,07,09,00,25,19.50
2017,07,09,00,26,19.50
2017,07,09,00,27,19.50
2017,07,09,00,28,19.50
2017,07,09,00,29,19.40
2017,07,09,00,30,19.40
2017,07,09,00,31,19.40
2017,07,09,00,32,19.40
2017,07,09,00,33,19.40
2017,07,09,00,34,19.40
2017,07,09,00,35,19.40
2017,07,09,00,36,19.30
2017,07,09,00,37,19.30
2017,07,09,00,38,19.30
2017,07,09,00,39,19.30
2017,07,09,00,40,19.30
2017,07,09,00,41,19.30
2017,07,09,00,42,19.20
2017,07,09,00,43,19.20
2017,07,09,00,44,19.20
2017,07,09,00,45,19.20
2017,07,09,00,46,19.20
2017,07,09,00,47,19.20
2017,07,09,00,48,19.20
2017,07,09,00,49,19.20
2017,07,09,00,50,19.20
2017,07,09,00,51,19.20
2017,07,09,00,52,19.20
2017,07,09,00,53,19.10
2017,07,09,00,54,19.10
2017,07,09,00,55,19.10
2017,07,09,00,56,19.10
2017,07,09,00,57,19.10
2017,07,09,00,58,19.10
2017,07,09,00,59,19.10
2017,07,09,01,00,19.10
2017,07,09,01,01,19.10
2017,07,09,01,02,19.10
2017,07,09,01,03,19.10
2017,07,09,01,04,19.00
2017,07,09,01,05,19.00
2017,07,09,01,06,19.00
2017,07,09,01,07,19.00
2017,07,09,01,08,19.00
2017,07,09,01,09,19.00
2017,07,09,01,10,19.00
2017,07,09,01,11,19.00
2017,07,09,01,12,19.00
2017,07,09,01,13,19.00
2017,07,09,01,14,18.90
2017,07,09,01,15,18.90
2017,07,09,01,16,18.90
2017,07,09,01,17,18.90
2017,07,09,01,18,18.90
2017,07,09,01,19,18.90
2017,07,09,01,20,18.90
2017,07,09,01,21,18.90
2017,07,09,01,22,18.90
2017,07,09,01,23,18.90
2017,07,09,01,24,18.90
2017,07,09,01,25,18.90
2017,07,09,01,26,18.90
2017,07,09,01,27,18.90
2017,07,09,01,28,18.90
2017,07,09,01,29,18.90
2017,07,09,01,30,18.90
2017,07,09,01,31,18.80
2017,07,09,01,32,18.80
2017,07,09,01,33,18.80
2017,07,09,01,34,18.80
2017,07,09,01,35,18.80
2017,07,09,01,36,18.80
2017,07,09,01,37,18.80
2017,07,09,01,38,18.80
2017,07,09,01,39,18.80
2017,07,09,01,40,18.80
2017,07,09,01,41,18.80
2017,07,09,01,42,18.80
2017,07,09,01,43,18.80
2017,07,09,01,44,18.80
2017,07,09,01,45,18.80
2017,07,09,01,46,18.80
2017,07,09,01,47,18.80
2017,07,09,01,48,18.70
2017,07,09,01,49,18.70
2017,07,09,01,50,18.70
2017,07,09,01,51,18.70
2017,07,09,01,52,18.70
2017,07,09,01,53,18.70
2017,07,09,01,54,18.70
2017,07,09,01,55,18.70
2017,07,09,01,56,18.70
2017,07,09,01,57,18.70
2017,07,09,01,58,18.70
2017,07,09,01,59,18.70
2017,07,09,02,00,18.70
2017,07,09,02,01,18.70
2017,07,09,02,02,18.70
2017,07,09,02,03,18.70
2017,07,09,02,04,18.70
2017,07,09,02,05,18.70
2017,07,09,02,06,18.70
2017,07,09,02,07,18.60
2017,07,09,02,08,18.60
2017,07,09,02,09,18.60
2017,07,09,02,10,18.60
2017,07,09,02,11,18.60
2017,07,09,02,12,18.60
2017,07,09,02,13,18.60
2017,07,09,02,14,18.60
2017,07,09,02,15,18.50
2017,07,09,02,16,18.50
2017,07,09,02,17,18.50
2017,07,09,02,18,18.40
2017,07,09,02,19,18.40
2017,07,09,02,20,18.40
2017,07,09,02,21,18.30
2017,07,09,02,22,18.30
2017,07,09,02,23,18.30
2017,07,09,02,24,18.30
2017,07,09,02,25,18.30
2017,07,09,02,26,18.20
2017,07,09,02,27,18.20
2017,07,09,02,28,18.20
2017,07,09,02,29,18.10
2017,07,09,02,30,18.10
2017,07,09,02,31,18.10
2017,07,09,02,32,18.10
2017,07,09,02,33,18.00
2017,07,09,02,34,18.00
2017,07,09,02,35,17.90
2017,07,09,02,36,17.90
2017,07,09,02,37,17.90
2017,07,09,02,38,17.90
2017,07,09,02,39,17.90
2017,07,09,02,40,17.80
2017,07,09,02,41,17.80
2017,07,09,02,42,17.80
2017,07,09,02,43,17.80
2017,07,09,02,44,17.80
2017,07,09,02,45,17.80
2017,07,09,02,46,17.80
2017,07,09,02,47,17.80
2017,07,09,02,48,17.80
2017,07,09,02,49,17.80
2017,07,09,02,50,17.80
2017,07,09,02,51,17.70
2017,07,09,02,52,17.70
2017,07,09,02,53,17.70
2017,07,09,02,54,17.70
2017,07,09,02,55,17.70
2017,07,09,02,56,17.70
2017,07,09,02,57,17.70
2017,07,09,02,58,17.70
2017,07,09,02,59,17.60
2017,07,09,03,00,17.60
2017,07,09,03,01,17.60
2017,07,09,03,02,17.60
2017,07,09,03,03,17.60
2017,07,09,03,04,17.60
2017,07,09,03,05,17.60
2017,07,09,03,06,17.60
2017,07,09,03,07,17.60
2017,07,09,03,08,17.60
2017,07,09,03,09,17.60
2017,07,09,03,10,17.60
2017,07,09,03,11,17.60
2017,07,09,03,12,17.60
2017,07,09,03,13,17.60
2017,07,09,03,14,17.60
2017,07,09,03,15,17.60
2017,07,09,03,16,17.60
2017,07,09,03,17,17.60
2017,07,09,03,18,17.50
2017,07,09,03,19,17.40
2017,07,09,03,20,17.40
2017,07,09,03,21,17.40
2017,07,09,03,22,17.40
2017,07,09,03,23,17.40
2017,07,09,03,24,17.30
2017,07,09,03,25,17.30
2017,07,09,03,26,17.30
2017,07,09,03,27,17.30
2017,07,09,03,28,17.30
2017,07,09,03,29,17.30
2017,07,09,03,30,17.30
2017,07,09,03,31,17.20
2017,07,09,03,32,17.20
2017,07,09,03,33,17.20
2017,07,09,03,34,17.20
2017,07,09,03,35,17.20
2017,07,09,03,36,17.20
2017,07,09,03,37,17.20
2017,07,09,03,38,17.10
2017,07,09,03,39,17.10
2017,07,09,03,40,17.10
2017,07,09,03,41,17.10
2017,07,09,03,42,17.10
2017,07,09,03,43,17.10
2017,07,09,03,44,17.10
2017,07,09,03,45,17.10
2017,07,09,03,46,17.10
2017,07,09,03,47,17.10
2017,07,09,03,48,17.10
2017,07,09,03,49,17.10
2017,07,09,03,50,17.10
2017,07,09,03,51,17.10
2017,07,09,03,52,17.10
2017,07,09,03,53,17.10
2017,07,09,03,54,17.10
2017,07,09,03,55,17.10
2017,07,09,03,56,17.10
2017,07,09,03,57,17.10
2017,07,09,03,58,17.10
2017,07,09,03,59,17.10
2017,07,09,04,00,17.10
2017,07,09,04,01,17.10
2017,07,09,04,02,17.10
2017,07,09,04,03,17.10
2017,07,09,04,04,17.10
2017,07,09,04,05,17.10
2017,07,09,04,06,17.10
2017,07,09,04,07,17.10
2017,07,09,04,08,17.10
2017,07,09,04,09,17.20
2017,07,09,04,10,17.20
2017,07,09,04,11,17.20
2017,07,09,04,12,17.20
2017,07,09,04,13,17.20
2017,07,09,04,14,17.20
2017,07,09,04,15,17.20
2017,07,09,04,16,17.20
2017,07,09,04,17,17.20
2017,07,09,04,18,17.30
2017,07,09,04,19,17.20
2017,07,09,04,20,17.20
2017,07,09,04,21,17.30
2017,07,09,04,22,17.30
2017,07,09,04,23,17.30
2017,07,09,04,24,17.30
2017,07,09,04,25,17.30
2017,07,09,04,26,17.30
2017,07,09,04,27,17.30
2017,07,09,04,28,17.20
2017,07,09,04,29,17.20
2017,07,09,04,30,17.20
2017,07,09,04,31,17.20
2017,07,09,04,32,17.30
2017,07,09,04,33,17.20
2017,07,09,04,34,17.20
2017,07,09,04,35,17.20
2017,07,09,04,36,17.20
2017,07,09,04,37,17.20
2017,07,09,04,38,17.20
2017,07,09,04,39,17.20
2017,07,09,04,40,17.20
2017,07,09,04,41,17.20
2017,07,09,04,42,17.20
2017,07,09,04,43,17.20
2017,07,09,04,44,17.20
2017,07,09,04,45,17.20
2017,07,09,04,46,17.20
2017,07,09,04,47,17.20
2017,07,09,04,48,17.20
2017,07,09,04,49,17.20
2017,07,09,04,50,17.20
2017,07,09,04,51,17.30
2017,07,09,04,52,17.20
2017,07,09,04,53,17.20
2017,07,09,04,54,17.20
2017,07,09,04,55,17.20
2017,07,09,04,56,17.20
2017,07,09,04,57,17.20
2017,07,09,04,58,17.20
2017,07,09,04,59,17.20
2017,07,09,05,00,17.20
2017,07,09,05,01,17.20
2017,07,09,05,02,17.20
2017,07,09,05,03,17.20
2017,07,09,05,04,17.20
2017,07,09,05,05,17.20
2017,07,09,05,06,17.20
2017,07,09,05,07,17.20
2017,07,09,05,08,17.20
2017,07,09,05,09,17.20
2017,07,09,05,10,17.20
2017,07,09,05,11,17.20
2017,07,09,05,12,17.20
2017,07,09,05,13,17.20
2017,07,09,05,14,17.20
2017,07,09,05,15,17.20
2017,07,09,05,16,17.20
2017,07,09,05,17,17.20
2017,07,09,05,18,17.20
2017,07,09,05,19,17.20
2017,07,09,05,20,17.20
2017,07,09,05,21,17.20
2017,07,09,05,22,17.20
2017,07,09,05,23,17.20
2017,07,09,05,24,17.20
2017,07,09,05,25,17.30
2017,07,09,05,26,17.30
2017,07,09,05,27,17.30
2017,07,09,05,28,17.30
2017,07,09,05,29,17.30
2017,07,09,05,30,17.30
2017,07,09,05,31,17.30
2017,07,09,05,32,17.30
2017,07,09,05,33,17.30
2017,07,09,05,34,17.30
2017,07,09,05,35,17.30
2017,07,09,05,36,17.30
2017,07,09,05,37,17.30
2017,07,09,05,38,17.30
2017,07,09,05,39,17.30
2017,07,09,05,40,17.30
2017,07,09,05,41,17.30
2017,07,09,05,42,17.30
2017,07,09,05,43,17.30
2017,07,09,05,44,17.30
2017,07,09,05,45,17.30
2017,07,09,05,46,17.30
2017,07,09,05,47,17.30
2017,07,09,05,48,17.30
2017,07,09,05,49,17.40
2017,07,09,05,50,17.40
2017,07,09,05,51,17.40
2017,07,09,05,52,17.30
2017,07,09,05,53,17.40
2017,07,09,05,54,17.40
2017,07,09,05,55,17.40
2017,07,09,05,56,17.40
2017,07,09,05,57,17.40
2017,07,09,05,58,17.40
2017,07,09,05,59,17.40
2017,07,09,06,00,17.40
2017,07,09,06,01,17.40
2017,07,09,06,02,17.40
2017,07,09,06,03,17.40
2017,07,09,06,04,17.40
2017,07,09,06,05,17.40
2017,07,09,06,06,17.40
2017,07,09,06,07,17.40
2017,07,09,06,08,17.40
2017,07,09,06,09,17.40
2017,07,09,06,10,17.40
2017,07,09,06,11,17.40
2017,07,09,06,12,17.40
2017,07,09,06,13,17.40
2017,07,09,06,14,17.40
2017,07,09,06,15,17.40
2017,07,09,06,16,17.40
2017,07,09,06,17,17.40
2017,07,09,06,18,17.40
2017,07,09,06,19,17.40
2017,07,09,06,20,17.40
2017,07,09,06,21,17.40
2017,07,09,06,22,17.40
2017,07,09,06,23,17.40
2017,07,09,06,24,17.30
2017,07,09,06,25,17.40
2017,07,09,06,26,17.30
2017,07,09,06,27,17.40
2017,07,09,06,28,17.40
2017,07,09,06,29,17.40
2017,07,09,06,30,17.40
2017,07,09,06,31,17.30
2017,07,09,06,32,17.30
2017,07,09,06,33,17.30
2017,07,09,06,34,17.30
2017,07,09,06,35,17.30
2017,07,09,06,36,17.30
2017,07,09,06,37,17.30
2017,07,09,06,38,17.30
2017,07,09,06,39,17.30
2017,07,09,06,40,17.30
2017,07,09,06,41,17.30
2017,07,09,06,42,17.30
2017,07,09,06,43,17.40
2017,07,09,06,44,17.40
2017,07,09,06,45,17.40
2017,07,09,06,46,17.40
2017,07,09,06,47,17.40
2017,07,09,06,48,17.40
2017,07,09,06,49,17.40
2017,07,09,06,50,17.40
2017,07,09,06,51,17.50
2017,07,09,06,52,17.50
2017,07,09,06,53,17.50
2017,07,09,06,54,17.50
2017,07,09,06,55,17.50
2017,07,09,06,56,17.60
2017,07,09,06,57,17.60
2017,07,09,06,58,17.60
2017,07,09,06,59,17.60
2017,07,09,07,00,17.60
2017,07,09,07,01,17.60
2017,07,09,07,02,17.60
2017,07,09,07,03,17.60
2017,07,09,07,04,17.60
2017,07,09,07,05,17.60
2017,07,09,07,06,17.60
2017,07,09,07,07,17.60
2017,07,09,07,08,17.50
2017,07,09,07,09,17.50
2017,07,09,07,10,17.50
2017,07,09,07,11,17.50
2017,07,09,07,12,17.50
2017,07,09,07,13,17.60
2017,07,09,07,14,17.50
2017,07,09,07,15,17.50
2017,07,09,07,16,17.60
2017,07,09,07,17,17.50
2017,07,09,07,18,17.50
2017,07,09,07,19,17.50
2017,07,09,07,20,17.50
2017,07,09,07,21,17.50
2017,07,09,07,22,17.50
2017,07,09,07,23,17.60
2017,07,09,07,24,17.60
2017,07,09,07,25,17.60
2017,07,09,07,26,17.60
2017,07,09,07,27,17.60
2017,07,09,07,28,17.60
2017,07,09,07,29,17.60
2017,07,09,07,30,17.60
2017,07,09,07,31,17.70
2017,07,09,07,32,17.70
2017,07,09,07,33,17.70
2017,07,09,07,34,17.70
2017,07,09,07,35,17.70
2017,07,09,07,36,17.70
2017,07,09,07,37,17.70
2017,07,09,07,38,17.80
2017,07,09,07,39,17.80
2017,07,09,07,40,17.80
2017,07,09,07,41,17.80
2017,07,09,07,42,17.80
2017,07,09,07,43,17.70
2017,07,09,07,44,17.70
2017,07,09,07,45,17.70
2017,07,09,07,46,17.70
2017,07,09,07,47,17.70
2017,07,09,07,48,17.60
2017,07,09,07,49,17.60
2017,07,09,07,50,17.60
2017,07,09,07,51,17.60
2017,07,09,07,52,17.60
2017,07,09,07,53,17.60
2017,07,09,07,54,17.60
2017,07,09,07,55,17.60
2017,07,09,07,56,17.60
2017,07,09,07,57,17.60
2017,07,09,07,58,17.60
2017,07,09,07,59,17.60
2017,07,09,08,00,17.60
2017,07,09,08,01,17.60
2017,07,09,08,02,17.60
2017,07,09,08,03,17.60
2017,07,09,08,04,17.60
2017,07,09,08,05,17.60
2017,07,09,08,06,17.60
2017,07,09,08,07,17.60
2017,07,09,08,08,17.60
2017,07,09,08,09,17.70
2017,07,09,08,10,17.70
2017,07,09,08,11,17.70
2017,07,09,08,12,17.70
2017,07,09,08,13,17.70
2017,07,09,08,14,17.80
2017,07,09,08,15,17.80
2017,07,09,08,16,17.80
2017,07,09,08,17,17.80
2017,07,09,08,18,17.80
2017,07,09,08,19,17.90
2017,07,09,08,20,17.90
2017,07,09,08,21,17.90
2017,07,09,08,22,17.90
2017,07,09,08,23,18.00
2017,07,09,08,24,18.00
2017,07,09,08,25,18.00
2017,07,09,08,26,18.00
2017,07,09,08,27,18.00
2017,07,09,08,28,18.00
2017,07,09,08,29,18.00
2017,07,09,08,30,18.10
2017,07,09,08,31,18.10
2017,07,09,08,32,18.10
2017,07,09,08,33,18.10
2017,07,09,08,34,18.10
2017,07,09,08,35,18.10
2017,07,09,08,36,18.10
2017,07,09,08,37,18.20
2017,07,09,08,38,18.20
2017,07,09,08,39,18.30
2017,07,09,08,40,18.30
2017,07,09,08,41,18.40
2017,07,09,08,42,18.50
2017,07,09,08,43,18.50
2017,07,09,08,44,18.60
2017,07,09,08,45,18.60
2017,07,09,08,46,18.60
2017,07,09,08,47,18.70
2017,07,09,08,48,18.70
2017,07,09,08,49,18.70
2017,07,09,08,50,18.70
2017,07,09,08,51,18.70
2017,07,09,08,52,18.70
2017,07,09,08,53,18.70
2017,07,09,08,54,18.70
2017,07,09,08,55,18.70
2017,07,09,08,56,18.70
2017,07,09,08,57,18.80
2017,07,09,08,58,18.80
2017,07,09,08,59,18.80
2017,07,09,09,00,18.80
2017,07,09,09,01,18.80
2017,07,09,09,02,18.80
2017,07,09,09,03,18.80
2017,07,09,09,04,18.80
2017,07,09,09,05,18.80
2017,07,09,09,06,18.80
2017,07,09,09,07,18.80
2017,07,09,09,08,18.80
2017,07,09,09,09,18.80
2017,07,09,09,10,18.70
2017,07,09,09,11,18.70
2017,07,09,09,12,18.70
2017,07,09,09,13,18.70
2017,07,09,09,14,18.70
2017,07,09,09,15,18.70
2017,07,09,09,16,18.60
2017,07,09,09,17,18.60
2017,07,09,09,18,18.60
2017,07,09,09,19,18.60
2017,07,09,09,20,18.60
2017,07,09,09,21,18.60
2017,07,09,09,22,18.60
2017,07,09,09,23,18.60
2017,07,09,09,24,18.60
2017,07,09,09,25,18.60
2017,07,09,09,26,18.60
2017,07,09,09,27,18.60
2017,07,09,09,28,18.60
2017,07,09,09,29,18.60
2017,07,09,09,30,18.70
2017,07,09,09,31,18.70
2017,07,09,09,32,18.60
2017,07,09,09,33,18.60
2017,07,09,09,34,18.60
2017,07,09,09,35,18.60
2017,07,09,09,36,18.60
2017,07,09,09,37,18.60
2017,07,09,09,38,18.60
2017,07,09,09,39,18.60
2017,07,09,09,40,18.60
2017,07,09,09,41,18.60
2017,07,09,09,42,18.60
2017,07,09,09,43,18.70
2017,07,09,09,44,18.70
2017,07,09,09,45,18.70
2017,07,09,09,46,18.70
2017,07,09,09,47,18.70
2017,07,09,09,48,18.70
2017,07,09,09,49,18.70
2017,07,09,09,50,18.70
2017,07,09,09,51,18.60
2017,07,09,09,52,18.60
2017,07,09,09,53,18.60
2017,07,09,09,54,18.60
2017,07,09,09,55,18.60
2017,07,09,09,56,18.50
2017,07,09,09,57,18.50
2017,07,09,09,58,18.50
2017,07,09,09,59,18.50
2017,07,09,10,00,18.40
2017,07,09,10,01,18.40
2017,07,09,10,02,18.30
2017,07,09,10,03,18.30
2017,07,09,10,04,18.30
2017,07,09,10,05,18.30
2017,07,09,10,06,18.30
2017,07,09,10,07,18.30
2017,07,09,10,08,18.30
2017,07,09,10,09,18.30
2017,07,09,10,10,18.30
2017,07,09,10,11,18.30
2017,07,09,10,12,18.30
2017,07,09,10,13,18.30
2017,07,09,10,14,18.30
2017,07,09,10,15,18.40
2017,07,09,10,16,18.40
2017,07,09,10,17,18.40
2017,07,09,10,18,18.30
2017,07,09,10,19,18.30
2017,07,09,10,20,18.30
2017,07,09,10,21,18.30
2017,07,09,10,22,18.20
2017,07,09,10,23,18.20
2017,07,09,10,24,18.20
2017,07,09,10,25,18.20
2017,07,09,10,26,18.20
2017,07,09,10,27,18.20
2017,07,09,10,28,18.20
2017,07,09,10,29,18.20
2017,07,09,10,30,18.20
2017,07,09,10,31,18.20
2017,07,09,10,32,18.20
2017,07,09,10,33,18.20
2017,07,09,10,34,18.20
2017,07,09,10,35,18.30
2017,07,09,10,36,18.30
2017,07,09,10,37,18.30
2017,07,09,10,38,18.30
2017,07,09,10,39,18.30
2017,07,09,10,40,18.40
2017,07,09,10,41,18.40
2017,07,09,10,42,18.40
2017,07,09,10,43,18.50
2017,07,09,10,44,18.50
2017,07,09,10,45,18.60
2017,07,09,10,46,18.60
2017,07,09,10,47,18.60
2017,07,09,10,48,18.60
2017,07,09,10,49,18.60
2017,07,09,10,50,18.60
2017,07,09,10,51,18.60
2017,07,09,10,52,18.60
2017,07,09,10,53,18.60
2017,07,09,10,54,18.60
2017,07,09,10,55,18.60
2017,07,09,10,56,18.60
2017,07,09,10,57,18.60
2017,07,09,10,58,18.60
2017,07,09,10,59,18.60
2017,07,09,11,00,18.60
2017,07,09,11,01,18.60
2017,07,09,11,02,18.60
2017,07,09,11,03,18.50
2017,07,09,11,04,18.60
2017,07,09,11,05,18.60
2017,07,09,11,06,18.60
2017,07,09,11,07,18.60
2017,07,09,11,08,18.70
2017,07,09,11,09,18.60
2017,07,09,11,10,18.50
2017,07,09,11,11,18.40
2017,07,09,11,12,18.30
2017,07,09,11,13,18.30
2017,07,09,11,14,18.20
2017,07,09,11,15,18.20
2017,07,09,11,16,18.20
2017,07,09,11,17,18.10
2017,07,09,11,18,18.10
2017,07,09,11,19,18.10
2017,07,09,11,20,18.10
2017,07,09,11,21,18.10
2017,07,09,11,22,18.10
2017,07,09,11,23,18.10
2017,07,09,11,24,18.20
2017,07,09,11,25,18.20
2017,07,09,11,26,18.20
2017,07,09,11,27,18.20
2017,07,09,11,28,18.10
2017,07,09,11,29,18.10
2017,07,09,11,30,18.10
2017,07,09,11,31,18.10
2017,07,09,11,32,18.20
2017,07,09,11,33,18.20
2017,07,09,11,34,18.20
2017,07,09,11,35,18.20
2017,07,09,11,36,18.30
2017,07,09,11,37,18.40
2017,07,09,11,38,18.50
2017,07,09,11,39,18.50
2017,07,09,11,40,18.60
2017,07,09,11,41,18.70
2017,07,09,11,42,18.70
2017,07,09,11,43,18.60
2017,07,09,11,44,18.60
2017,07,09,11,45,18.70
2017,07,09,11,46,18.70
2017,07,09,11,47,18.70
2017,07,09,11,48,18.70
2017,07,09,11,49,18.80
2017,07,09,11,50,18.70
2017,07,09,11,51,18.60
2017,07,09,11,52,18.60
2017,07,09,11,53,18.50
2017,07,09,11,54,18.40
2017,07,09,11,55,18.40
2017,07,09,11,56,18.30
2017,07,09,11,57,18.30
2017,07,09,11,58,18.30
2017,07,09,11,59,18.30
2017,07,09,12,00,18.30
2017,07,09,12,01,18.40
2017,07,09,12,02,18.50
2017,07,09,12,03,18.60
2017,07,09,12,04,18.60
2017,07,09,12,05,18.70
2017,07,09,12,06,18.80
2017,07,09,12,07,18.80
2017,07,09,12,08,18.90
2017,07,09,12,09,18.90
2017,07,09,12,10,19.00
2017,07,09,12,11,19.00
2017,07,09,12,12,19.00
2017,07,09,12,13,18.90
2017,07,09,12,14,18.80
2017,07,09,12,15,18.70
2017,07,09,12,16,18.70
2017,07,09,12,17,18.70
2017,07,09,12,18,18.70
2017,07,09,12,19,18.70
2017,07,09,12,20,18.80
2017,07,09,12,21,18.80
2017,07,09,12,22,18.90
2017,07,09,12,23,18.90
2017,07,09,12,24,19.00
2017,07,09,12,25,19.10
2017,07,09,12,26,19.10
2017,07,09,12,27,19.20
2017,07,09,12,28,19.20
2017,07,09,12,29,19.30
2017,07,09,12,30,19.30
2017,07,09,12,31,19.40
2017,07,09,12,32,19.40
2017,07,09,12,33,19.40
2017,07,09,12,34,19.30
2017,07,09,12,35,19.30
2017,07,09,12,36,19.20
2017,07,09,12,37,19.20
2017,07,09,12,38,19.20
2017,07,09,12,39,19.20
2017,07,09,12,40,19.20
2017,07,09,12,41,19.20
2017,07,09,12,42,19.20
2017,07,09,12,43,19.30
2017,07,09,12,44,19.40
2017,07,09,12,45,19.40
2017,07,09,12,46,19.30
2017,07,09,12,47,19.20
2017,07,09,12,48,19.10
2017,07,09,12,49,18.90
2017,07,09,12,50,18.80
2017,07,09,12,51,18.70
2017,07,09,12,52,18.70
2017,07,09,12,53,18.80
2017,07,09,12,54,18.80
2017,07,09,12,55,18.90
2017,07,09,12,56,19.00
2017,07,09,12,57,19.10
2017,07,09,12,58,19.20
2017,07,09,12,59,19.20
2017,07,09,13,00,19.20
2017,07,09,13,01,19.20
2017,07,09,13,02,19.10
2017,07,09,13,03,19.10
2017,07,09,13,04,19.10
2017,07,09,13,05,19.10
2017,07,09,13,06,19.00
2017,07,09,13,07,19.00
2017,07,09,13,08,19.00
2017,07,09,13,09,19.10
2017,07,09,13,10,19.20
2017,07,09,13,11,19.30
2017,07,09,13,12,19.40
2017,07,09,13,13,19.50
2017,07,09,13,14,19.60
2017,07,09,13,15,19.70
2017,07,09,13,16,19.80
2017,07,09,13,17,19.90
2017,07,09,13,18,20.00
2017,07,09,13,19,20.10
2017,07,09,13,20,20.20
2017,07,09,13,21,20.30
2017,07,09,13,22,20.30
2017,07,09,13,23,20.30
2017,07,09,13,24,20.20
2017,07,09,13,25,20.10
2017,07,09,13,26,19.90
2017,07,09,13,27,19.80
2017,07,09,13,28,19.70
2017,07,09,13,29,19.70
2017,07,09,13,30,19.60
2017,07,09,13,31,19.60
2017,07,09,13,32,19.60
2017,07,09,13,33,19.60
2017,07,09,13,34,19.60
2017,07,09,13,35,19.60
2017,07,09,13,36,19.60
2017,07,09,13,37,19.60
2017,07,09,13,38,19.60
2017,07,09,13,39,19.60
2017,07,09,13,40,19.50
2017,07,09,13,41,19.40
2017,07,09,13,42,19.40
2017,07,09,13,43,19.40
2017,07,09,13,44,19.40
2017,07,09,13,45,19.40
2017,07,09,13,46,19.30
2017,07,09,13,47,19.20
2017,07,09,13,48,19.20
2017,07,09,13,49,19.20
2017,07,09,13,50,19.10
2017,07,09,13,51,19.10
2017,07,09,13,52,19.10
2017,07,09,13,53,19.10
2017,07,09,13,54,19.10
2017,07,09,13,55,19.10
2017,07,09,13,56,19.10
2017,07,09,13,57,19.10
2017,07,09,13,58,19.10
2017,07,09,13,59,19.10
2017,07,09,14,00,19.20
2017,07,09,14,01,19.30
2017,07,09,14,02,19.30
2017,07,09,14,03,19.40
2017,07,09,14,04,19.50
2017,07,09,14,05,19.60
2017,07,09,14,06,19.60
2017,07,09,14,07,19.70
2017,07,09,14,08,19.70
2017,07,09,14,09,19.60
2017,07,09,14,10,19.60
2017,07,09,14,11,19.60
2017,07,09,14,12,19.60
2017,07,09,14,13,19.60
2017,07,09,14,14,19.60
2017,07,09,14,15,19.70
2017,07,09,14,16,19.80
2017,07,09,14,17,19.90
2017,07,09,14,18,19.90
2017,07,09,14,19,19.90
2017,07,09,14,20,19.80
2017,07,09,14,21,19.70
2017,07,09,14,22,19.70
2017,07,09,14,23,19.60
2017,07,09,14,24,19.60
2017,07,09,14,25,19.60
2017,07,09,14,26,19.60
2017,07,09,14,27,19.60
2017,07,09,14,28,19.70
2017,07,09,14,29,19.90
2017,07,09,14,30,20.00
2017,07,09,14,31,20.20
2017,07,09,14,32,20.30
2017,07,09,14,33,20.50
2017,07,09,14,34,20.70
2017,07,09,14,35,20.90
2017,07,09,14,36,21.20
2017,07,09,14,37,21.40
2017,07,09,14,38,21.60
2017,07,09,14,39,21.80
2017,07,09,14,40,21.90
2017,07,09,14,41,22.00
2017,07,09,14,42,22.00
2017,07,09,14,43,21.90
2017,07,09,14,44,21.80
2017,07,09,14,45,21.60
2017,07,09,14,46,21.40
2017,07,09,14,47,21.30
2017,07,09,14,48,21.20
2017,07,09,14,49,21.00
2017,07,09,14,50,21.00
2017,07,09,14,51,21.00
2017,07,09,14,52,21.10
2017,07,09,14,53,21.10
2017,07,09,14,54,21.20
2017,07,09,14,55,21.20
2017,07,09,14,56,21.30
2017,07,09,14,57,21.30
2017,07,09,14,58,21.40
2017,07,09,14,59,21.40
2017,07,09,15,00,21.50
2017,07,09,15,01,21.60
2017,07,09,15,02,21.60
2017,07,09,15,03,21.60
2017,07,09,15,04,21.50
2017,07,09,15,05,21.50
2017,07,09,15,06,21.40
2017,07,09,15,07,21.30
2017,07,09,15,08,21.30
2017,07,09,15,09,21.30
2017,07,09,15,10,21.20
2017,07,09,15,11,21.20
2017,07,09,15,12,21.20
2017,07,09,15,13,21.30
2017,07,09,15,14,21.30
2017,07,09,15,15,21.50
2017,07,09,15,16,21.60
2017,07,09,15,17,21.70
2017,07,09,15,18,21.80
2017,07,09,15,19,21.90
2017,07,09,15,20,22.00
2017,07,09,15,21,22.00
2017,07,09,15,22,22.20
2017,07,09,15,23,22.20
2017,07,09,15,24,22.20
2017,07,09,15,25,22.10
2017,07,09,15,26,22.10
2017,07,09,15,27,22.00
2017,07,09,15,28,22.00
2017,07,09,15,29,22.10
2017,07,09,15,30,22.20
2017,07,09,15,31,22.30
2017,07,09,15,32,22.40
2017,07,09,15,33,22.40
2017,07,09,15,34,22.30
2017,07,09,15,35,22.30
2017,07,09,15,36,22.20
2017,07,09,15,37,22.00
2017,07,09,15,38,21.90
2017,07,09,15,39,22.00
2017,07,09,15,40,22.10
2017,07,09,15,41,22.20
2017,07,09,15,42,22.30
2017,07,09,15,43,22.40
2017,07,09,15,44,22.50
2017,07,09,15,45,22.50
2017,07,09,15,46,22.60
2017,07,09,15,47,22.70
2017,07,09,15,48,22.60
2017,07,09,15,49,22.50
2017,07,09,15,50,22.50
2017,07,09,15,51,22.40
2017,07,09,15,52,22.30
2017,07,09,15,53,22.20
2017,07,09,15,54,22.20
2017,07,09,15,55,22.10
2017,07,09,15,56,22.00
2017,07,09,15,57,22.00
2017,07,09,15,58,22.00
2017,07,09,15,59,22.00
2017,07,09,16,00,22.10
2017,07,09,16,01,22.20
2017,07,09,16,02,22.30
2017,07,09,16,03,22.50
2017,07,09,16,04,22.60
2017,07,09,16,05,22.80
2017,07,09,16,06,22.90
2017,07,09,16,07,23.10
2017,07,09,16,08,23.20
2017,07,09,16,09,23.30
2017,07,09,16,10,23.40
2017,07,09,16,11,23.50
2017,07,09,16,12,23.60
2017,07,09,16,13,23.60
2017,07,09,16,14,23.70
2017,07,09,16,15,23.60
2017,07,09,16,16,23.60
2017,07,09,16,17,23.60
2017,07,09,16,18,23.60
2017,07,09,16,19,23.60
2017,07,09,16,20,23.70
2017,07,09,16,21,23.60
2017,07,09,16,22,23.60
2017,07,09,16,23,23.50
2017,07,09,16,24,23.50
2017,07,09,16,25,23.40
2017,07,09,16,26,23.50
2017,07,09,16,27,23.60
2017,07,09,16,28,23.70
2017,07,09,16,29,23.80
2017,07,09,16,30,23.90
2017,07,09,16,31,24.00
2017,07,09,16,32,24.00
2017,07,09,16,33,24.00
2017,07,09,16,34,23.90
2017,07,09,16,35,23.90
2017,07,09,16,36,23.90
2017,07,09,16,37,23.90
2017,07,09,16,38,23.80
2017,07,09,16,39,23.90
2017,07,09,16,40,23.90
2017,07,09,16,41,23.90
2017,07,09,16,42,23.90
2017,07,09,16,43,23.90
2017,07,09,16,44,23.90
2017,07,09,16,45,23.90
2017,07,09,16,46,23.90
2017,07,09,16,47,23.90
2017,07,09,16,48,23.90
2017,07,09,16,49,23.80
2017,07,09,16,50,23.70
2017,07,09,16,51,23.70
2017,07,09,16,52,23.50
2017,07,09,16,53,23.40
2017,07,09,16,54,23.30
2017,07,09,16,55,23.30
2017,07,09,16,56,23.20
2017,07,09,16,57,23.10
2017,07,09,16,58,23.00
2017,07,09,16,59,22.90
2017,07,09,17,00,22.90
2017,07,09,17,01,22.90
2017,07,09,17,02,22.80
2017,07,09,17,03,22.80
2017,07,09,17,04,22.80
2017,07,09,17,05,22.80
2017,07,09,17,06,22.80
2017,07,09,17,07,22.80
2017,07,09,17,08,22.80
2017,07,09,17,09,22.90
2017,07,09,17,10,23.00
2017,07,09,17,11,23.10
2017,07,09,17,12,23.20
2017,07,09,17,13,23.30
2017,07,09,17,14,23.40
2017,07,09,17,15,23.50
2017,07,09,17,16,23.60
2017,07,09,17,17,23.70
2017,07,09,17,18,23.80
2017,07,09,17,19,23.80